This is the latest recevied weather packets stored in our database for station/object SR9NLI. If no packets are shown the sender has not sent any weather packets the latest 1 day(s).
| Time | Temp. | Humidity | Pressure | Rain* | Wind** | Luminosity | Snow |
|---|---|---|---|---|---|---|---|
| 1778010925 | 18.33° C | 100% | 949.8 hPa | - | 1.79 m/s, 173° | - | - |
| 1778010801 | 18.33° C | 100% | 949.8 hPa | - | 1.79 m/s, 173° | - | - |
| 1778010740 | 18.33° C | 100% | 950 hPa | - | 1.79 m/s, 176° | - | - |
| 1778010677 | 17.78° C | 100% | 950 hPa | - | 0.89 m/s, 184° | - | - |
| 1778010554 | 17.78° C | 100% | 949.9 hPa | - | 0.89 m/s, 187° | - | - |
| 1778010432 | 17.78° C | 100% | 949.9 hPa | - | 0.45 m/s, 196° | - | - |
| 1778010371 | 17.78° C | 100% | 950 hPa | - | 0.45 m/s, 0° | - | - |
| 1778010308 | 17.78° C | 100% | 950 hPa | - | 0.45 m/s, 0° | - | - |
| 1778010185 | 18.33° C | 100% | 949.9 hPa | - | 0.89 m/s, 204° | - | - |
| 1778010062 | 18.33° C | 100% | 950 hPa | - | 0.89 m/s, 200° | - | - |
| 1778010002 | 18.33° C | 100% | 949.9 hPa | - | 0.89 m/s, 194° | - | - |
| 1778009939 | 18.33° C | 100% | 950 hPa | - | 0.89 m/s, 195° | - | - |
| 1778009816 | 18.33° C | 100% | 949.9 hPa | - | 0.89 m/s, 190° | - | - |
| 1778009693 | 18.33° C | 100% | 949.8 hPa | - | 0.89 m/s, 193° | - | - |
| 1778009633 | 18.33° C | 100% | 949.9 hPa | - | 0.89 m/s, 200° | - | - |
| 1778009571 | 18.33° C | 100% | 949.9 hPa | - | 0.89 m/s, 191° | - | - |
| 1778009448 | 18.33° C | 100% | 949.9 hPa | - | 0.89 m/s, 180° | - | - |
| 1778009324 | 18.89° C | 100% | 949.9 hPa | - | 1.34 m/s, 175° | - | - |
| 1778009263 | 18.89° C | 100% | 949.9 hPa | - | 1.34 m/s, 176° | - | - |
| 1778009201 | 18.89° C | 100% | 949.9 hPa | - | 1.34 m/s, 178° | - | - |
| 1778009078 | 18.89° C | 100% | 950 hPa | - | 1.34 m/s, 215° | - | - |
| 1778008955 | 18.89° C | 100% | 950 hPa | - | 1.34 m/s, 197° | - | - |
| 1778008894 | 18.89° C | 100% | 950 hPa | - | 1.79 m/s, 191° | - | - |
| 1778008832 | 18.89° C | 100% | 949.9 hPa | - | 1.79 m/s, 177° | - | - |
| 1778008709 | 18.89° C | 100% | 950 hPa | - | 1.79 m/s, 174° | - | - |
* Rain since midnight (hover to see other rain measurements)
** Current wind speed in m/s (hover to see current wind gust speed)